Date String (YYYY-MM-DD hh:mm:ss) UTC,Instrument flags,Ambient pressure (hPa),Sample flow (lpm),Bypass flow (lpm),Sample temperature (°C),Ambient temperature (°C),ASC tube jacket temperature (°C),LED temperature (°C),Box temperature (°C),Sample RH (%),Span deviation,Mass concentration (μg/m³),Mass concentration (μg/m³),Mass concentration (μg/m³)
DateTimeUTC,F1_M11,P_M11,Q1_M11,Q2_M11,T1_M11,T2_M11,T3_M11,T4_M11,T5_M11,U1_M11,ZSPAN_M11,X0_M11,X2_M11,X1_M11
2021-11-06 11:00:00,,0828.4,5.00,0.00,27.8,26.8,00.0,36.9,29.5,08.9,0000.0,0007.69,0002.27,0001.31
2021-11-06 11:01:00,,0828.5,4.99,0.00,27.8,26.8,00.0,36.9,29.5,08.9,0000.0,0006.74,0002.21,0001.31
2021-11-06 11:02:00,,0828.4,5.01,0.00,27.8,26.8,00.0,36.9,29.5,08.9,0000.0,0005.97,0002.13,0001.30
2021-11-06 11:03:00,,0828.5,4.99,0.00,27.8,26.8,00.0,36.9,29.5,08.9,0000.0,0005.75,0002.11,0001.31
2021-11-06 11:04:00,,0828.5,5.00,0.00,27.8,26.9,00.0,36.9,29.5,08.9,0000.0,0005.68,0002.07,0001.30
2021-11-06 11:05:00,,0828.5,5.00,0.00,27.8,26.9,00.0,36.9,29.6,08.8,0000.0,0006.00,0002.08,0001.30
2021-11-06 11:06:00,,0828.5,5.00,0.00,27.8,26.9,00.0,36.9,29.6,08.8,0000.0,0005.39,0002.06,0001.28
2021-11-06 11:07:00,,0828.5,5.01,0.00,27.8,26.9,00.0,36.9,29.6,08.8,0000.0,0005.61,0002.08,0001.28
2021-11-06 11:08:00,,0828.5,4.99,0.00,27.8,26.9,00.0,36.9,29.6,08.7,0000.0,0005.57,0002.06,0001.27
2021-11-06 11:09:00,,0828.4,5.01,0.00,27.8,26.9,00.0,36.9,29.6,08.6,0000.0,0004.77,0001.99,0001.26
2021-11-06 11:10:00,,0828.4,5.00,0.00,27.8,26.9,00.0,36.9,29.6,08.6,0000.0,0004.54,0001.91,0001.24
2021-11-06 11:11:00,,0828.4,4.99,0.00,27.8,26.9,00.0,36.9,29.6,08.6,0000.0,0004.71,0001.89,0001.22
2021-11-06 11:12:00,,0828.3,5.01,0.00,27.8,26.9,00.0,36.9,29.5,08.5,0000.0,0004.64,0001.87,0001.21
2021-11-06 11:13:00,,0828.5,4.99,0.00,27.8,26.8,00.0,36.8,29.5,08.7,0000.0,0004.56,0001.88,0001.20
2021-11-06 11:14:00,,0828.4,4.98,0.00,27.7,26.8,00.0,36.8,29.4,08.8,0000.0,0004.78,0001.82,0001.18
2021-11-06 11:15:00,,0828.4,5.00,0.00,27.7,26.7,00.0,36.8,29.4,08.8,0000.0,0004.77,0001.81,0001.17
2021-11-06 11:16:00,,0828.4,5.00,0.00,27.6,26.7,00.0,36.8,29.4,08.8,0000.0,0004.47,0001.79,0001.17
2021-11-06 11:17:00,,0828.4,5.00,0.00,27.6,26.6,00.0,36.8,29.3,08.7,0000.0,0004.43,0001.78,0001.16
2021-11-06 11:18:00,,0828.3,5.01,0.00,27.6,26.6,00.0,36.8,29.3,08.6,0000.0,0004.21,0001.73,0001.15
2021-11-06 11:19:00,,0828.5,4.99,0.00,27.6,26.6,00.0,36.8,29.3,08.3,0000.0,0004.14,0001.72,0001.15
2021-11-06 11:20:00,,0828.3,5.00,0.00,27.6,26.6,00.0,36.7,29.3,08.4,0000.0,0004.23,0001.72,0001.15
2021-11-06 11:21:00,,0828.3,5.01,0.00,27.5,26.5,00.0,36.7,29.2,08.3,0000.0,0005.88,0001.77,0001.16
2021-11-06 11:22:00,,0828.5,5.00,0.00,27.5,26.5,00.0,36.7,29.2,08.3,0000.0,0005.90,0001.81,0001.17
2021-11-06 11:23:00,,0828.3,5.01,0.00,27.5,26.5,00.0,36.7,29.2,08.2,0000.0,0005.99,0001.84,0001.19
2021-11-06 11:24:00,,0828.4,5.00,0.00,27.5,26.5,00.0,36.7,29.2,08.1,0000.0,0006.00,0001.83,0001.18
2021-11-06 11:25:00,,0828.3,4.99,0.00,27.5,26.5,00.0,36.6,29.2,08.0,0000.0,0005.74,0001.81,0001.17
2021-11-06 11:26:00,,0828.3,5.01,0.00,27.4,26.5,00.0,36.6,29.2,08.0,0000.0,0005.52,0001.79,0001.17
2021-11-06 11:27:00,,0828.3,5.00,0.00,27.4,26.5,00.0,36.6,29.2,08.0,0000.0,0005.80,0001.72,0001.17
2021-11-06 11:28:00,,0828.3,5.01,0.00,27.4,26.4,00.0,36.6,29.1,08.0,0000.0,0005.75,0001.71,0001.17
2021-11-06 11:29:00,,0828.3,5.00,0.00,27.4,26.4,00.0,36.6,29.1,08.0,0000.0,0005.76,0001.70,0001.16
2021-11-06 11:30:00,,0828.3,5.01,0.00,27.4,26.4,00.0,36.6,29.1,07.9,0000.0,0005.55,0001.67,0001.15
2021-11-06 11:31:00,,0828.4,5.00,0.00,27.4,26.4,00.0,36.5,29.1,07.8,0000.0,0005.28,0001.65,0001.15
2021-11-06 11:32:00,,0828.3,4.99,0.00,27.4,26.4,00.0,36.5,29.1,07.8,0000.0,0003.76,0001.63,0001.15
2021-11-06 11:33:00,,0828.4,4.99,0.00,27.4,26.4,00.0,36.5,29.1,07.8,0000.0,0003.41,0001.58,0001.13
2021-11-06 11:34:00,,0828.3,5.02,0.00,27.3,26.4,00.0,36.5,29.1,07.7,0000.0,0003.28,0001.55,0001.11
2021-11-06 11:35:00,,0828.3,4.99,0.00,27.3,26.4,00.0,36.5,29.1,07.7,0000.0,0003.10,0001.50,0001.10
2021-11-06 11:36:00,,0828.3,4.99,0.00,27.3,26.4,00.0,36.5,29.1,07.7,0000.0,0003.10,0001.49,0001.10
2021-11-06 11:37:00,,0828.3,5.01,0.00,27.3,26.5,00.0,36.4,29.1,07.7,0000.0,0003.15,0001.48,0001.09
2021-11-06 11:38:00,,0828.3,4.98,0.00,27.4,26.5,00.0,36.4,29.1,07.6,0000.0,0002.84,0001.44,0001.09
2021-11-06 11:39:00,,0828.3,5.01,0.00,27.4,26.5,00.0,36.4,29.1,07.6,0000.0,0003.04,0001.43,0001.07
2021-11-06 11:40:00,,0828.4,5.00,0.00,27.4,26.6,00.0,36.4,29.1,07.6,0000.0,0002.91,0001.40,0001.06
2021-11-06 11:41:00,,0828.4,4.99,0.00,27.4,26.6,00.0,36.4,29.1,07.5,0000.0,0002.94,0001.40,0001.06
2021-11-06 11:42:00,,0828.3,5.02,0.00,27.4,26.6,00.0,36.4,29.2,07.5,0000.0,0002.92,0001.36,0001.04
2021-11-06 11:43:00,,0828.3,4.99,0.00,27.4,26.6,00.0,36.4,29.2,07.5,0000.0,0003.00,0001.34,0001.04
2021-11-06 11:44:00,,0828.2,5.00,0.00,27.4,26.6,00.0,36.4,29.2,07.6,0000.0,0003.02,0001.34,0001.04
2021-11-06 11:45:00,,0828.3,5.01,0.00,27.4,26.6,00.0,36.4,29.2,07.6,0000.0,0003.04,0001.32,0001.04
2021-11-06 11:46:00,,0828.4,4.99,0.00,27.4,26.6,00.0,36.4,29.1,07.9,0000.0,0003.04,0001.31,0001.04
2021-11-06 11:47:00,,0828.3,5.00,0.00,27.4,26.6,00.0,36.4,29.2,08.2,0000.0,0003.10,0001.35,0001.05
2021-11-06 11:48:00,,0828.3,5.00,0.00,27.4,26.6,00.0,36.4,29.2,08.3,0000.0,0003.05,0001.36,0001.07
2021-11-06 11:49:00,,0828.3,5.01,0.00,27.4,26.6,00.0,36.4,29.2,08.2,0000.0,0002.82,0001.38,0001.08
2021-11-06 11:50:00,,0828.3,5.00,0.00,27.4,26.6,00.0,36.4,29.2,08.2,0000.0,0002.56,0001.41,0001.09
2021-11-06 11:51:00,,0828.2,5.00,0.00,27.4,26.6,00.0,36.5,29.2,07.9,0000.0,0002.57,0001.43,0001.09
2021-11-06 11:52:00,,0828.2,5.00,0.00,27.4,26.6,00.0,36.5,29.2,08.0,0000.0,0002.64,0001.46,0001.11
2021-11-06 11:53:00,,0828.1,5.00,0.00,27.4,26.6,00.0,36.5,29.2,08.3,0000.0,0002.81,0001.51,0001.12
2021-11-06 11:54:00,,0828.1,5.00,0.00,27.4,26.6,00.0,36.5,29.2,08.3,0000.0,0002.70,0001.52,0001.12
2021-11-06 11:55:00,,0828.2,5.00,0.00,27.4,26.6,00.0,36.5,29.2,08.2,0000.0,0002.61,0001.51,0001.11
2021-11-06 11:56:00,,0828.2,5.02,0.00,27.4,26.5,00.0,36.5,29.2,08.1,0000.0,0002.52,0001.51,0001.11
2021-11-06 11:57:00,,0828.1,4.98,0.00,27.4,26.5,00.0,36.5,29.1,08.1,0000.0,0002.56,0001.55,0001.11
2021-11-06 11:58:00,,0828.2,4.99,0.00,27.4,26.5,00.0,36.5,29.2,08.1,0000.0,0002.57,0001.53,0001.10
2021-11-06 11:59:00,,0828.1,5.02,0.00,27.4,26.5,00.0,36.5,29.2,08.1,0000.0,0002.44,0001.48,0001.08
